Location: Cannifist
(18.2333°N, 63.0167°W)
Time: 09:50:58
(UTC+00:00)

HJ-1C - Pass Details

Date: 27 February 2020
Orbit: 435 x 445 km, 97.2° (Epoch: 07 April)

Event Time Altitude Azimuth Distance (km) Brightness Sun altitude
Rises 23:13:48 0° 155° (SSE) 2,403 6.9 -14.1°
Reaches altitude 10° 23:15:54 10° 147° (SSE) 1,536 5.8 -14.6°
Maximum altitude 23:18:58 38° 77° (ENE) 681 3.8 -15.4°
Drops below altitude 10° 23:22:03 10° 8° (N) 1,537 6.0 -16.1°
Sets 23:24:08 0° 0° (N) 2,405 7.1 -16.6°
